EW4443 Weather Reports


time (UTC)temp
C
wind
direction
speed
KPH
gust
KPH
rain 1hr
cm
rain 24hr
cm
rain mn
cm
humidity
%
barometer
mb
20260901024302 28 180 0.0 0.0 0.00 0.79 0.33 55 1010.8
20260901023531 28 180 0.0 0.0 0.00 0.79 0.33 54 1010.8
20260901023031 28 180 0.0 0.0 0.00 0.79 0.33 51 1010.5
20260901022531 28 180 0.0 0.0 0.00 0.79 0.33 56 1010.8
20260901022031 28 23 0.0 0.0 0.00 0.79 0.33 56 1010.8
20260901021529 28 45 0.0 0.0 0.00 0.79 0.33 56 1010.8
20260901021305 28 45 0.0 0.0 0.00 0.79 0.33 54 1010.5
20260901021030 28 45 0.0 0.0 0.00 0.79 0.33 55 1010.5
20260901020030 29 45 0.0 0.0 0.00 0.79 0.33 51 1010.0
20260901015531 29 45 0.0 0.0 0.00 0.79 0.33 51 1010.0
20260901015031 29 68 0.0 0.0 0.00 0.79 0.33 55 1010.0
20260901014531 29 45 0.0 0.0 0.00 0.79 0.33 53 1010.0
20260901014302 29 45 0.0 0.0 0.00 0.79 0.33 53 1010.0
20260901013531 29 45 0.0 0.0 0.00 0.79 0.33 51 1010.0
20260901013029 29 23 0.0 1.6 0.00 0.79 0.33 50 1010.5
20260901012800 30 45 0.0 1.6 0.00 0.79 0.33 50 1010.0
20260901012300 30 45 0.0 0.0 0.00 0.79 0.33 51 1010.0
20260901011530 30 23 0.0 0.0 0.00 0.79 0.33 51 1010.5
20260901011031 30 23 0.0 8.0 0.00 0.79 0.33 50 1010.5
20260901010531 30 23 1.6 8.0 0.00 0.79 0.33 50 1010.5
20260901010033 30 45 0.0 6.4 0.00 0.79 0.33 50 1010.0
20260901005531 30 68 1.6 6.4 0.00 0.79 0.33 50 1010.5
20260901005032 30 203 0.0 4.8 0.00 0.79 0.33 48 1010.0
20260901004530 30 158 0.0 4.8 0.00 0.79 0.33 48 1010.5
20260901004029 30 225 0.0 4.8 0.00 0.79 0.33 49 1010.5
20260901003530 30 203 0.0 4.8 0.00 0.79 0.33 49 1010.5
20260901003030 30 270 0.0 3.2 0.00 0.79 0.33 46 1010.5
20260901002801 30 248 0.0 3.2 0.00 0.79 0.33 49 1010.5
20260901002030 30 270 0.0 3.2 0.00 0.79 0.33 49 1010.5
20260901001531 30 203 0.0 3.2 0.00 0.79 0.33 48 1010.5
20260901001031 30 45 0.0 4.8 0.00 0.79 0.33 50 1010.5
20260901000531 30 270 0.0 4.8 0.00 0.79 0.33 46 1010.5
20260901000030 30 203 0.0 6.4 0.00 0.79 0.33 46 1010.8
20260831235529 30 315 1.6 6.4 0.00 0.79 0.33 46 1010.8
20260831235030 30 180 0.0 8.0 0.00 0.79 0.33 46 1010.8
20260831234529 30 113 1.6 8.0 0.00 0.79 0.33 46 1010.8
20260831234030 30 180 1.6 6.4 0.00 0.79 0.33 46 1010.8
20260831233801 30 225 1.6 4.8 0.00 0.79 0.33 45 1010.8
20260831233030 30 248 0.0 8.0 0.00 0.79 0.33 45 1010.8
20260831232532 30 180 1.6 8.0 0.00 0.79 0.33 45 1010.8
20260831232031 30 180 0.0 8.0 0.00 0.79 0.33 50 1010.8
20260831231530 30 180 1.6 11.3 0.00 0.79 0.33 48 1010.8
20260831231300 30 158 1.6 11.3 0.00 0.79 0.33 49 1010.8
20260831230529 30 270 1.6 8.0 0.00 0.79 0.33 50 1011.1
20260831230029 30 203 1.6 8.0 0.00 0.79 0.33 49 1011.1
20260831225529 30 270 0.0 9.7 0.00 0.79 0.33 50 1011.1
20260831225030 30 225 1.6 9.7 0.00 0.79 0.33 50 1011.1
20260831224530 30 0 1.6 6.4 0.00 0.79 0.33 48 1011.1
20260831224030 30 203 1.6 8.0 0.00 0.79 0.33 48 1011.5
20260831223530 30 180 1.6 8.0 0.00 0.79 0.33 48 1011.5
20260831223010 30 45 1.6 9.7 0.00 0.79 0.33 49 1011.1
20260831222511 30 248 1.6 9.7 0.00 0.79 0.33 46 1011.5
20260831222010 31 158 1.6 9.7 0.00 0.79 0.33 51 1011.8
20260831221510 30 270 1.6 8.0 0.00 0.79 0.33 48 1012.1
20260831221010 30 225 1.6 8.0 0.00 0.79 0.33 51 1011.8
20260831220511 31 0 0.0 8.0 0.00 0.79 0.33 50 1012.1
20260831220242 30 23 1.6 8.0 0.00 0.79 0.33 54 1012.1
20260831215511 30 225 1.6 11.3 0.00 0.79 0.33 54 1012.5
20260831215011 30 158 1.6 11.3 0.00 0.79 0.33 53 1012.8
20260831214511 30 225 1.6 9.7 0.00 0.79 0.33 53 1012.8
20260831214011 30 0 1.6 9.7 0.00 0.79 0.33 55 1013.3
20260831213510 30 113 1.6 9.7 0.00 0.79 0.33 55 1013.3
20260831213010 29 180 1.6 11.3 0.00 0.79 0.33 56 1013.3
20260831212510 29 135 1.6 14.5 0.00 0.79 0.33 55 1013.3
20260831212242 29 203 3.2 14.5 0.00 0.79 0.33 55 1013.6
20260831211511 28 180 1.6 9.7 0.00 0.79 0.33 58 1013.6
20260831211011 28 68 1.6 9.7 0.00 0.79 0.33 56 1013.9
20260831210511 28 225 1.6 11.3 0.00 0.79 0.33 58 1013.9
20260831210010 28 203 1.6 11.3 0.00 0.79 0.33 58 1013.9
20260831205514 28 158 1.6 9.7 0.00 0.79 0.33 59 1014.3
20260831205510 28 203 1.6 6.4 0.00 0.79 0.33 55 1013.9
20260831204510 28 225 1.6 9.7 0.00 0.79 0.33 60 1014.3
20260831204009 28 225 1.6 8.0 0.00 0.79 0.33 61 1014.3
20260831203511 27 158 1.6 16.1 0.00 0.79 0.33 63 1014.3
20260831203010 27 135 3.2 16.1 0.00 0.79 0.33 63 1014.6
20260831202510 27 225 1.6 14.5 0.00 0.79 0.33 63 1014.3
20260831202010 27 270 1.6 6.4 0.00 0.79 0.33 63 1014.3
20260831201510 26 225 1.6 9.7 0.00 0.79 0.33 65 1014.6
20260831201009 26 203 1.6 11.3 0.00 0.79 0.33 65 1014.3
20260831200509 26 158 3.2 11.3 0.00 0.79 0.33 68 1014.3
20260831200009 26 203 3.2 14.5 0.00 0.79 0.33 69 1014.3
20260831195509 26 180 3.2 16.1 0.00 0.79 0.33 68 1014.6
20260831195010 26 180 1.6 16.1 0.00 0.79 0.33 73 1014.6
20260831194510 25 225 1.6 8.0 0.00 0.79 0.33 73 1015.0
20260831194010 25 0 1.6 9.7 0.00 0.79 0.33 73 1014.6
20260831193510 25 180 1.6 9.7 0.00 0.79 0.33 74 1014.6
20260831193242 25 90 1.6 6.4 0.00 0.79 0.33 73 1015.0
20260831192509 25 315 1.6 8.0 0.00 0.79 0.33 74 1014.6
20260831192009 25 293 1.6 9.7 0.00 0.79 0.33 73 1014.6
20260831191511 25 225 1.6 9.7 0.00 0.79 0.33 75 1015.0
20260831191240 25 225 1.6 9.7 0.00 0.79 0.33 75 1015.0
20260831190509 25 158 1.6 9.7 0.00 0.79 0.33 76 1015.0
20260831190010 25 158 1.6 11.3 0.00 0.79 0.33 80 1015.0
20260831185510 24 270 1.6 12.9 0.00 0.79 0.33 79 1014.6
20260831185010 24 45 1.6 16.1 0.00 0.79 0.33 79 1015.0
20260831184510 24 180 1.6 16.1 0.00 0.79 0.33 78 1015.0
20260831184008 24 90 1.6 8.0 0.00 0.79 0.33 79 1015.0
20260831183509 24 158 1.6 8.0 0.00 0.79 0.33 79 1014.6
20260831183010 24 180 1.6 14.5 0.00 0.79 0.33 80 1014.6
20260831182508 24 180 1.6 14.5 0.00 0.79 0.33 81 1014.6
20260831182009 24 158 1.6 12.9 0.00 0.79 0.33 83 1015.0
20260831181510 24 203 1.6 9.7 0.00 0.79 0.33 85 1015.0
20260831181242 24 248 1.6 8.0 0.00 0.79 0.33 86 1015.0
20260831180510 24 180 1.6 8.0 0.00 0.79 0.33 86 1015.0
20260831180009 24 158 1.6 6.4 0.00 0.79 0.33 86 1015.0
20260831175513 23 203 0.0 4.8 0.00 0.79 0.33 86 1015.0
20260831175508 24 248 0.0 3.2 0.00 0.79 0.33 86 1015.0
20260831174508 23 0 1.6 6.4 0.00 0.79 0.33 86 1015.3
20260831174008 23 203 1.6 6.4 0.00 0.79 0.33 88 1015.6
20260831173509 23 338 0.0 4.8 0.00 0.79 0.33 88 1015.3
20260831173242 23 45 0.0 4.8 0.00 0.79 0.33 88 1015.3
20260831172509 23 315 0.0 3.2 0.00 0.79 0.33 88 1015.6
20260831172009 23 45 0.0 3.2 0.00 0.79 0.33 88 1015.6
20260831171509 23 270 0.0 3.2 0.03 0.79 0.33 88 1015.3
20260831171009 23 23 0.0 3.2 0.05 0.79 0.33 88 1015.3
20260831170508 23 270 0.0 6.4 0.08 0.79 0.33 88 1015.3
20260831170008 23 293 0.0 6.4 0.10 0.79 0.33 88 1015.3
20260831165508 23 23 0.0 4.8 0.13 0.79 0.33 88 1015.3
20260831165008 23 203 1.6 6.4 0.13 0.79 0.33 88 1015.3
20260831164509 23 45 1.6 8.0 0.13 0.79 0.33 88 1015.0
20260831164009 23 45 1.6 8.0 0.15 0.79 0.33 88 1015.3
20260831163509 23 68 1.6 8.0 0.15 0.79 0.33 88 1015.0
20260831163009 23 135 1.6 8.0 0.18 0.79 0.33 88 1015.3
20260831162509 23 45 1.6 9.7 0.20 0.79 0.33 88 1015.0
20260831162008 23 45 1.6 9.7 0.23 0.79 0.33 88 1015.3
20260831161508 23 23 1.6 8.0 0.23 0.76 0.30 88 1015.0
20260831161008 23 135 1.6 11.3 0.20 0.74 0.28 86 1014.6
20260831160509 23 68 3.2 11.3 0.18 0.71 0.25 86 1014.6
20260831160009 23 90 3.2 11.3 0.15 0.69 0.23 86 1014.6
20260831155510 23 68 3.2 11.3 0.13 0.66 0.20 86 1014.6
20260831155009 23 90 3.2 11.3 0.13 0.66 0.20 86 1014.6
20260831154509 23 45 3.2 11.3 0.15 0.66 0.20 86 1015.0
20260831154009 23 45 1.6 8.0 0.13 0.64 0.18 86 1015.0
20260831153449 23 45 1.6 6.4 0.15 0.64 0.18 86 1015.0
20260831152949 23 45 0.0 0.0 0.15 0.61 0.15 85 1015.3
20260831152720 23 0 0.0 0.0 0.13 0.58 0.13 85 1015.3
20260831151949 23 45 0.0 4.8 0.10 0.56 0.10 85 1015.0
20260831151449 23 135 0.0 6.4 0.08 0.53 0.08 83 1015.0
20260831150950 23 45 0.0 9.7 0.08 0.53 0.08 83 1015.0
20260831150451 23 45 1.6 11.3 0.08 0.53 0.08 83 1014.6
20260831145950 23 270 1.6 11.3 0.08 0.53 0.08 83 1015.0
20260831145454 23 225 1.6 6.4 0.08 0.53 0.08 81 1015.0
20260831145450 23 158 1.6 6.4 0.08 0.53 0.08 83 1014.6
20260831144719 23 180 1.6 8.0 0.05 0.51 0.05 81 1014.6
20260831143949 24 180 1.6 8.0 0.05 0.51 0.05 80 1014.6
20260831143449 25 225 1.6 11.3 0.03 0.48 0.03 78 1014.6
20260831142950 25 203 1.6 11.3 0.00 0.46 0.00 75 1014.6
20260831142721 26 180 3.2 9.7 0.00 0.46 0.00 71 1014.6
20260831141950 26 225 1.6 9.7 0.00 0.46 0.00 70 1014.3
20260831141450 26 270 1.6 11.3 0.00 0.46 0.00 70 1013.9
20260831140950 26 270 1.6 11.3 0.00 0.46 0.00 70 1013.6
20260831140449 26 203 1.6 9.7 0.00 0.46 0.00 70 1013.9
20260831140220 26 225 1.6 9.7 0.00 0.46 0.00 70 1013.3
20260831135720 26 293 1.6 9.7 0.00 0.46 0.00 70 1013.3
20260831134949 26 270 1.6 8.0 0.00 0.46 0.00 69 1013.3
20260831134449 26 315 1.6 8.0 0.00 0.46 0.00 68 1012.8
20260831133952 26 248 1.6 9.7 0.00 0.46 0.00 66 1012.8
20260831133450 26 158 1.6 9.7 0.00 0.46 0.00 65 1012.5
20260831132950 26 180 1.6 16.1 0.00 0.46 0.00 65 1012.8
20260831132449 26 180 3.2 16.1 0.00 0.46 0.00 63 1012.5
20260831131950 26 293 1.6 8.0 0.00 0.46 0.00 63 1012.5
20260831131448 26 180 1.6 8.0 0.00 0.46 0.00 63 1012.1
20260831130949 26 225 1.6 8.0 0.00 0.46 0.00 63 1012.1
20260831130452 26 180 0.0 6.4 0.00 0.46 0.00 63 1012.1
20260831130448 26 203 0.0 6.4 0.00 0.46 0.00 63 1012.1
20260831125450 26 248 1.6 8.0 0.00 0.46 0.00 65 1012.1
20260831125221 26 203 1.6 6.4 0.00 0.46 0.00 65 1011.8
20260831124450 26 158 1.6 11.3 0.00 0.46 0.00 65 1012.1
20260831123949 26 180 3.2 11.3 0.00 0.46 0.00 66 1012.1
20260831123449 26 203 1.6 8.0 0.00 0.46 0.00 68 1011.8
20260831123218 26 225 1.6 6.4 0.00 0.46 0.00 66 1011.8
20260831122448 26 158 1.6 6.4 0.00 0.46 0.00 66 1011.8
20260831121948 26 180 0.0 6.4 0.00 0.46 0.00 65 1011.8
20260831121719 26 158 1.6 6.4 0.00 0.46 0.00 65 1011.8
20260831120949 26 158 1.6 8.0 0.00 0.46 0.00 65 1011.5
20260831120449 26 180 1.6 8.0 0.00 0.46 0.00 65 1011.5
20260831115949 26 158 0.0 6.4 0.00 0.46 0.00 66 1011.5
20260831115449 26 225 1.6 8.0 0.00 0.46 0.00 66 1011.1
20260831115220 26 225 1.6 8.0 0.00 0.46 0.00 66 1011.1
20260831114448 26 158 1.6 8.0 0.00 0.46 0.00 66 1011.5
20260831113948 26 158 1.6 3.2 0.00 0.46 0.00 65 1011.1
20260831113448 26 158 0.0 3.2 0.00 0.46 0.00 65 1011.1
20260831112948 26 180 0.0 0.0 0.00 0.46 0.00 65 1010.8
20260831112449 26 23 0.0 0.0 0.00 0.46 0.00 65 1010.8
20260831111949 26 158 0.0 1.6 0.00 0.46 0.00 65 1010.5
20260831111450 26 45 0.0 1.6 0.00 0.46 0.00 65 1010.5
20260831110949 26 248 0.0 3.2 0.00 0.46 0.00 63 1010.8
20260831110449 26 23 0.0 8.0 0.00 0.46 0.00 65 1010.8
20260831110219 26 315 1.6 8.0 0.00 0.46 0.00 65 1010.8
20260831105447 26 0 0.0 8.0 0.00 0.46 0.00 65 1010.8
20260831104948 26 113 0.0 0.0 0.00 0.46 0.00 65 1010.5
20260831104718 26 180 0.0 0.0 0.00 0.46 0.00 65 1010.5
20260831103953 26 23 0.0 0.0 0.00 0.46 0.00 65 1010.0
20260831103949 26 338 0.0 0.0 0.00 0.46 0.00 65 1010.5
20260831103221 26 45 0.0 0.0 0.00 0.46 0.00 66 1009.7
20260831102449 26 45 0.0 3.2 0.00 0.46 0.00 65 1009.7
20260831101719 26 23 0.0 3.2 0.00 0.46 0.00 65 1009.3
20260831100947 26 45 0.0 3.2 0.00 0.46 0.00 66 1009.3
20260831100452 26 90 0.0 1.6 0.00 0.46 0.00 65 1009.7
20260831100448 26 23 0.0 1.6 0.00 0.46 0.00 65 1009.7
20260831095448 26 68 0.0 1.6 0.00 0.46 0.00 66 1010.0
20260831095219 26 45 0.0 4.8 0.00 0.46 0.00 66 1009.3
20260831094449 26 45 0.0 4.8 0.00 0.46 0.00 66 1010.0
20260831093949 26 248 0.0 6.4 0.00 0.46 0.00 66 1010.0
20260831093448 26 90 0.0 6.4 0.00 0.46 0.00 66 1010.0
20260831092949 26 68 0.0 9.7 0.00 0.46 0.00 68 1010.0
20260831092447 26 23 1.6 9.7 0.00 0.46 0.00 68 1010.0
20260831091947 26 90 1.6 8.0 0.00 0.46 0.00 68 1010.0
20260831091447 26 90 1.6 8.0 0.00 0.46 0.00 68 1010.5
20260831090948 26 23 1.6 9.7 0.00 0.46 0.00 66 1010.5
20260831090448 26 0 3.2 11.3 0.00 0.46 0.00 66 1010.5
20260831090220 26 68 3.2 17.7 0.00 0.46 0.00 66 1010.5
20260831085450 26 45 3.2 19.3 0.00 0.46 0.00 66 1010.5
20260831084949 26 0 3.2 19.3 0.00 0.46 0.00 68 1010.5
20260831084720 26 45 3.2 16.1 0.00 0.46 0.00 68 1010.5
20260831083947 26 113 1.6 12.9 0.00 0.46 0.00 69 1010.5
20260831083447 26 23 3.2 12.9 0.00 0.46 0.00 68 1010.5
20260831082947 26 45 3.2 14.5 0.00 0.46 0.00 68 1010.5
20260831082448 26 23 3.2 22.5 0.00 0.46 0.00 68 1010.8
20260831081948 26 23 4.8 22.5 0.00 0.46 0.00 68 1010.8
20260831081453 26 23 1.6 8.0 0.00 0.46 0.00 69 1010.8
20260831081448 26 68 1.6 9.7 0.00 0.46 0.00 69 1010.8
20260831080720 26 45 1.6 9.7 0.00 0.46 0.00 70 1010.8
20260831075948 26 113 1.6 11.3 0.00 0.46 0.00 70 1011.1
20260831075446 26 23 3.2 11.3 0.00 0.46 0.00 70 1010.8
20260831074947 26 45 3.2 12.9 0.00 0.46 0.00 70 1011.1
20260831074447 26 68 3.2 12.9 0.00 0.46 0.00 70 1011.1
20260831073946 26 23 1.6 9.7 0.00 0.46 0.00 70 1011.1
20260831073448 26 23 1.6 9.7 0.00 0.46 0.00 70 1010.8
20260831072948 26 0 1.6 9.7 0.00 0.46 0.00 70 1010.5
20260831072448 26 23 1.6 8.0 0.00 0.46 0.00 70 1010.8
20260831071948 26 315 1.6 19.3 0.00 0.46 0.00 70 1010.5
20260831071718 26 0 3.2 19.3 0.00 0.46 0.00 70 1010.0
20260831070946 26 45 3.2 19.3 0.00 0.46 0.00 70 1010.0
20260831070445 26 338 3.2 19.3 0.00 0.46 0.00 71 1010.5
20260831070217 26 293 3.2 14.5 0.00 0.46 0.46 70 1010.5
20260831065446 26 0 3.2 19.3 0.00 0.46 0.46 71 1010.5
20260831064947 26 45 3.2 19.3 0.00 0.46 0.46 71 1010.5
20260831064447 26 23 3.2 14.5 0.00 0.46 0.46 71 1010.5
20260831063947 26 0 3.2 14.5 0.00 0.46 0.46 71 1010.0
20260831063446 26 45 3.2 14.5 0.00 0.46 0.46 70 1010.0
20260831062945 26 0 3.2 14.5 0.00 0.46 0.46 70 1010.0
20260831062445 26 23 3.2 14.5 0.00 0.46 0.46 70 1010.0
20260831061945 26 23 3.2 11.3 0.00 0.46 0.46 70 1009.7
20260831061715 26 338 3.2 17.7 0.00 0.46 0.46 70 1009.7
20260831060944 26 23 3.2 17.7 0.03 0.46 0.46 70 1009.7
20260831060446 26 23 1.6 6.4 0.03 0.46 0.46 71 1009.7
20260831055945 26 23 1.6 8.0 0.03 0.46 0.46 71 1009.0
20260831055716 26 270 1.6 8.0 0.03 0.46 0.46 70 1009.0
20260831054945 26 225 1.6 9.7 0.03 0.46 0.46 71 1009.0
20260831054446 26 225 1.6 11.3 0.03 0.46 0.46 70 1008.7
20260831053945 26 225 3.2 11.3 0.03 0.46 0.46 70 1009.0
20260831053445 26 248 1.6 11.3 0.03 0.46 0.46 70 1009.0
20260831052944 26 180 3.2 16.1 0.03 0.46 0.46 70 1009.0
20260831052444 26 203 3.2 16.1 0.03 0.46 0.46 68 1009.0
20260831051946 26 203 1.6 9.7 0.03 0.46 0.46 70 1009.0
20260831051446 27 158 1.6 11.3 0.05 0.46 0.46 69 1009.0
20260831051217 27 270 3.2 16.1 0.10 0.43 0.43 65 1009.3
20260831050446 26 225 3.2 19.3 0.36 0.43 0.43 65 1008.7
20260831045945 26 113 3.2 19.3 0.43 0.43 0.43 70 1009.3
20260831045444 26 203 4.8 25.7 0.43 0.43 0.43 71 1009.7
20260831044944 26 225 4.8 25.7 0.43 0.43 0.43 75 1009.3
20260831044443 26 180 4.8 19.3 0.43 0.43 0.43 76 1009.7
20260831043943 26 135 4.8 22.5 0.43 0.43 0.43 76 1009.7
20260831043445 26 158 4.8 24.1 0.43 0.43 0.43 78 1009.3
20260831042944 26 180 4.8 24.1 0.43 0.43 0.43 78 1009.0
20260831042715 26 248 4.8 24.1 0.43 0.43 0.43 78 1009.3
20260831042216 26 68 4.8 19.3 0.43 0.43 0.43 78 1008.7
20260831041443 27 203 3.2 24.1 0.41 0.41 0.41 75 1008.7
20260831040942 30 203 6.4 24.1 0.33 0.33 0.36 69 1009.0
20260831040442 32 180 4.8 25.7 0.08 0.08 0.10 59 1009.0
20260831035944 33 203 6.4 29.0 0.00 0.00 0.00 44 1009.0
20260831035442 33 180 6.4 29.0 0.00 0.00 0.00 41 1008.7
20260831034944 34 0 4.8 19.3 0.00 0.00 0.00 40 1009.0
20260831034443 35 203 4.8 24.1 0.00 0.00 0.00 39 1008.7
20260831033943 35 203 6.4 24.1 0.00 0.00 0.00 37 1008.3
20260831033443 36 203 6.4 25.7 0.00 0.00 0.00 37 1008.3
20260831032942 37 270 1.6 25.7 0.00 0.00 0.00 34 1007.6
20260831032443 37 270 0.0 3.2 0.00 0.00 0.00 34 1007.6
20260831031942 37 180 0.0 1.6 0.00 0.00 0.00 34 1007.3
20260831031441 37 270 0.0 3.2 0.00 0.00 0.00 35 1007.6
20260831030942 37 315 0.0 6.4 0.00 0.00 0.00 34 1007.3
20260831030715 37 338 0.0 6.4 0.00 0.00 0.00 34 1006.9
20260831030215 37 270 0.0 4.8 0.00 0.00 0.00 34 1006.9
20260831025444 37 270 0.0 4.8 0.00 0.00 0.00 34 1006.9
20260831024943 37 338 0.0 4.8 0.00 0.00 0.00 34 1006.5
20260831024444 37 315 0.0 6.4 0.00 0.00 0.00 32 1006.5